STARLINK-31917, 59669

Orbit data source: Space-Track

STARLINK-31917, 59669 is a payload satellite owned by SpaceX/Seattle (US) in LEO that was launched on Mon, 06 May 2024 UTC via an FALCON 9 launch vehicle from the Air Force Eastern Test Range (AFETR). Payload-class satellites include a variety of spacecraft equipped with specific instruments for various scientific and technological missions. These include communications satellites like Starlink; space stations such as the ISS; scientific satellites like the Hubble; Earth observation satellites from companies like Planet Labs, Umbra, and HawkEye 360; GPS; miniature CubeSats for education and research; and military/defense satellites.

Loading next visibility...
Identifier
59669, 2024-084R
Orbit
LEO
Country
Flag of USUS
Related business
Manufacturer
SpaceX/Seattle
Mission
Operational Commercial Communications
Bus & Motor
STARLINK V2M, Unknown motor
Mass
730 kg wet, ~700 kg dry
Launch date (UTC)
2024-05-06 (2 years ago)
Launch vehicle
FALCON 9
Launch site
Air Force Eastern Test Range (AFETR)
Object type
Payload
Rocket body
Debris
Shape & HBR
Box + 2 Pan, 17.7 m
Radar Cross Section
33.884 m², Large (>1 m²)

Expand to show TLE details & history
Last TLE update: 3 days ago

TLE from 3 days ago
0 STARLINK-31917
1 59669U 24084R   26170.50086436  .00000779  00000-0  37835-4 0  9994
2 59669  43.0029 186.8315 0001794 281.3555  78.7095 15.27578471119944
Epoch: 2026-06-19T12:01Z
TLE epoch observation values (Epoch: 2026-06-19T12:01:14.680Z)
Latitude
-0.00003°
Longitude
98.79136°
Altitude
482.589 km
Speed
7.626 km/s
True Right ascension
12h 27m 19s
True Declination
0° 00' 00"
Sunlit
Object was in daylight at epoch
Visualization orbit readout
Latitude
Unknown
Longitude
Unknown
Altitude
Unknown
Speed
Unknown
Apparent Right ascension
Unknown
Apparent Declination
Unknown
Sunlit
N/A
Visualization observer readout
Local Sidereal Time
00:50:00
Azimuth
Unknown
Elevation
Unknown
Doppler factor
Unknown
Orbital elements
Apogee altitude
486.23 km
Perigee altitude
483.767 km
Semi-major axis
6,863.135 km
Eccentricity
0.00018
Inclination
43.0029°
RAAN
186.8315°
Arg. of periapsis
281.3555°
True anomaly
78.72966°
Mean anomaly
78.7095°
Eccentric anomaly
78.71958°
Mean motion
3.81733 °/min
Orbital period
94.31 mins
BSTAR
0.000037835
Loading maneuver chart data...
Computing Atmospheric mass density...
Loading historical data...
Loading historical data...
Loading historical data...
Loading historical data...
Loading historical data...
Loading historical data...
Loading historical data...

Documentation

Showing up to 5 results
|